Regional Weather Roundup
Issued by NWS

Home | Current Version | Previous Version | Graphics & Text | Print | Product List | Glossary On
Versions: 1 2 3 4 5 6 7 8 9 10 11 12 13 14 15 16 17 18 19 20 21 22 23 24 25 26 27
000
ASUS45 KBOU 231706
RWRCO

WEATHER ROUNDUP FOR COLORADO
NATIONAL WEATHER SERVICE DENVER/BOULDER CO
1100 AM MDT WED APR 23 2014

NOTE: "FAIR" INDICATES FEW OR NO CLOUDS BELOW 12000 FEET WITH NO
SIGNIFICANT WEATHER AND/OR OBSTRUCTIONS TO VISIBILITY.

COZ001>005-013-030-031-231800-
...NORTHWEST COLORADO...

CITY           SKY/WX    TMP DP  RH WIND       PRES   REMARKS
CRAIG          CLOUDY    40  30  67 NW13      29.91R
HAYDEN         PTSUNNY   39  28  65 NW16      29.92R
MEEKER         CLOUDY    46  21  37 W14G21    29.89S
MOUNT WERNER   CLOUDY    28  27  93 W9G22     29.93R VSB<1/4 WCI  20
STEAMBOAT SPGS CLOUDY    42  31  67 W8        29.88F
WALDEN         PTSUNNY   41  28  60 W13G18    29.84R
$$

COZ006>008-011-231800-
...WEST CENTRAL VALLEYS...

CITY           SKY/WX    TMP DP  RH WIND       PRES   REMARKS
GRAND JUNCTION PTSUNNY   54  16  22 W17G23    29.86R
MONTROSE       PTSUNNY   57  23  26 NW13G22   29.86R
EAGLE          MOSUNNY   54  23  30 SW22G28   29.82S
RIFLE          MOSUNNY   56  17  21 N12       29.84S
DELTA          NOT AVBL
NUCLA          NOT AVBL
$$

COZ017>023-064>068-231800-
...SOUTHWEST COLORADO...

CITY           SKY/WX    TMP DP  RH WIND       PRES   REMARKS
DURANGO        PTSUNNY   58  15  18 W18G29    29.88R
CORTEZ         MOSUNNY   60  14  16 W16G23    29.85F
PAGOSA SPRINGS PTSUNNY   55  14  20 SW13      29.90F
TELLURIDE      PTSUNNY   46  14  27 W10G17    29.93R
WOLF CREEK PAS PTSUNNY   32  18  55 SW30G44   29.99S WCI  18
$$

COZ009-010-012-014-032>034-037-058>063-231800-
...CENTRAL COLORADO...

CITY           SKY/WX    TMP DP  RH WIND       PRES   REMARKS
ASPEN          PTSUNNY   48  24  39 N12G17    29.83S
BUENA VISTA    PTSUNNY   56  13  18 S14       29.80S
COPPER MTN     LGT SNOW  34  19  55 SW18G31   29.93S WCI  23
BERTHOUD PASS  FAIR      28  19  69 W28G39    29.93S WCI  13
COTTONWOOD PAS MOSUNNY   48   3  15 SW13G31   29.86R
GUNNISON       SUNNY     54  18  24 W22G30    29.86S
KREMMLING      CLOUDY    50  27  40 W9G17     29.83S
LEADVILLE      CLOUDY    39  17  41 NW7G18    29.86R
MONARCH PASS   LGT SNOW  32  19  59 W29G43    30.06R WCI  18
SALIDA         CLOUDY    59  21  23 W18G25    29.88S
SUNLIGHT       PTSUNNY   34  23  64 CALM      29.93S
WILKERSON PASS MOSUNNY   43  19  39 SW14G22   29.92S
$$

COZ069>075-231800-
...SAN LUIS VALLEY/SANGRE DE CRISTO MOUNTAINS...

CITY           SKY/WX    TMP DP  RH WIND       PRES   REMARKS
ALAMOSA        SUNNY     60  17  18 SW20G31   29.82S
LA VETA PASS   MOSUNNY   45  19  36 SW22G51   29.91F
SAGUACHE       CLOUDY    55  19  24 CALM      29.81F
$$

COZ035-036-038>040-231800-
...NORTHERN COLORADO FRONT RANGE...

CITY           SKY/WX    TMP DP  RH WIND       PRES   REMARKS
DENVER INTL AP MOSUNNY   69  28  21 NW13      29.63S
DMNS CITY PARK   N/A     67  31  26 NE7G15    29.62F
AURORA         MOSUNNY   68  30  24 N5        29.65F
FRONT RANGE AP MOSUNNY   70  28  21 CALM      29.64F
ERIE MUNI ARPT SUNNY     68  27  21 W17G24    29.62F
BOULDER MUN AP SUNNY     64  28  25 W22G30    29.63S
CENTENNIAL     MOSUNNY   65  24  21 W6        29.65F
BROOMFIELD     NOT AVBL
FORT COLLINS   SUNNY     66  30  26 SW21G26   29.62F
LONGMONT       NOT AVBL
$$

COZ041-046-047-076>085-087-088-231800-
...PIKES PEAK/PALMER DIVIDE AND SOUTHERN FOOTHILLS...

CITY           SKY/WX    TMP DP  RH WIND       PRES   REMARKS
COLO. SPRINGS  MOSUNNY   69  17  13 SW12G21   29.67F
A. F. ACADEMY  MOSUNNY   65  19  16 SW14G23   29.68S
ELLICOTT       NOT AVBL
FALCON         SUNNY     66  19  17 S9G18     29.72F
FORT CARSON    SUNNY     70  23  17 SW15G28   29.64F
LIMON          SUNNY     71  23  16 SW17      29.65S
MONUMENT HILL  SUNNY     64  23  20 SW15G24   29.71S
TRINIDAD       SUNNY     73  18  12 SW22G29   29.72F
$$

COZ042>045-048>051-090-091-231800-
...NORTHEAST COLORADO...

CITY           SKY/WX    TMP DP  RH WIND       PRES   REMARKS
GREELEY ARPT   SUNNY     70  36  28 W14G21    29.61S
AKRON          MOSUNNY   63  39  41 N17G25    29.65R
BURLINGTON     CLOUDY    73  39  29 SW22G32   29.62F
WRAY           CLOUDY    71  40  33 N21G26    29.62R
STERLING       NOT AVBL
HOLYOKE        NOT AVBL
FORT MORGAN    NOT AVBL
$$

COZ086-089-092>099-231800-
...SOUTHEAST COLORADO...

CITY           SKY/WX    TMP DP  RH WIND       PRES   REMARKS
PUEBLO         SUNNY     75  20  12 W13       29.62F
LA JUNTA       MOSUNNY   78  24  13 SW23G32   29.63F
LAMAR          CLOUDY    78  26  14 SW23      29.60F
SPRINGFIELD      N/A     74  41  30 SW20G29   29.68F
$$



USA.gov is the U.S. government's official web portal to all federal, state and local government web resources and services.